Regional Weather Roundup
Issued by NWS

Home | Current Version | Previous Version | Graphics & Text | Print | Product List | Glossary On
Versions: 1 2 3 4 5 6 7 8 9 10 11 12 13 14 15 16 17 18 19 20 21 22 23 24 25 26 27 28 29 30 31 32 33 34 35 36 37 38 39 40 41 42 43 44 45 46 47 48 49 50
000
ASUS43 KDTX 310010
RWRMI
MICHIGAN HOURLY REGIONAL WEATHER ROUNDUP
NATIONAL WEATHER SERVICE DETROIT/PONTIAC MI
800 PM EDT SAT JUL 30 2016

NOTE: "FAIR" INDICATES FEW OR NO CLOUDS BELOW 12,000 FEET WITH NO
SIGNIFICANT WEATHER AND/OR OBSTRUCTION TO VISIBILITY.

MIZ047>049-052>055-059>063-066>070-074>076-081>083-310100-
SOUTHEAST LOWER MICHIGAN

CITY           SKY/WX    TMP DP  RH WIND       PRES   REMARKS
ADRIAN         CLOUDY    70  70 100 NE7       29.97S
6HR MIN TEMP:  65; 6HR MAX TEMP:  82; 6HR PCP:  2.27;

ALMA           CLOUDY    68  66  93 NE9       30.03S
ANN ARBOR      CLOUDY    73  68  84 N10       29.97R
BAD AXE        CLOUDY    68  61  77 N8        30.02F
CARO           CLOUDY    67  64  90 N6        30.00F
DETROIT CITY   CLOUDY    75  66  73 N10       29.96S
6HR MIN TEMP:  74; 6HR MAX TEMP:  79;

DETROIT        CLOUDY    76  66  71 N9        29.96R
6HR MIN TEMP:  74; 6HR MAX TEMP:  81; 6HR PCP: TRACE;

FLINT          CLOUDY    72  63  73 NE8       30.00S
6HR MIN TEMP:  70; 6HR MAX TEMP:  75; 6HR PCP:  0.26;

GROSSE ILE     CLOUDY    75  67  76 E6        29.95R
6HR MIN TEMP:  71; 6HR MAX TEMP:  79; 6HR PCP:  0.14;

HILLSDALE      LGT RAIN  72  69  91 N5        29.97S
6HR MIN TEMP:  59; 6HR MAX TEMP:  87; 6HR PCP:  0.34;

HOWELL         CLOUDY    70  67  89 N5        29.99S

CITY           SKY/WX    TMP DP  RH WIND       PRES   REMARKS
JACKSON        MOCLDY    72  69  90 NE10      29.98R
6HR MIN TEMP:  72; 6HR MAX TEMP:  76;

LAMBERTVILLE   CLOUDY    76  68  78 CALM      29.95F
6HR MIN TEMP:  75; 6HR MAX TEMP:  80;

LANSING        CLOUDY    69  63  81 NE6       30.00S
6HR MIN TEMP:  69; 6HR MAX TEMP:  71; 6HR PCP:  0.01;

LAPEER         CLOUDY    70  63  79 NW6       30.01R
6HR MIN TEMP:  69; 6HR MAX TEMP:  75;

MASON          CLOUDY    69  65  85 NE7       29.99S
MONROE         CLOUDY    75  69  82 CALM      29.94S
6HR MIN TEMP:  75; 6HR MAX TEMP:  80;

MT. CLEMENS    MOCLDY    73  65  74 N10       29.95S
6HR MIN TEMP:  73; 6HR MAX TEMP:  77;

PONTIAC        CLOUDY    73  66  78 NE8       29.98R
6HR MIN TEMP:  68; 6HR MAX TEMP:  75; 6HR PCP:  0.01;

PORT HOPE        N/A     71  62  73 NE14      30.01F
6HR MIN TEMP:  70; 6HR MAX TEMP:  72;

PORT HURON     CLOUDY    70  64  83 N8        29.98S
TRI CITIES     CLOUDY    67  65  93 NE10      30.02F
6HR MIN TEMP:  67; 6HR MAX TEMP:  73; 6HR PCP:  0.16;

MIDLAND        LGT RAIN  66  64  92 NE5       30.02F
6HR MIN TEMP:  66; 6HR MAX TEMP:  73; 6HR PCP:  0.03;

TROY           CLOUDY    73  65  75 N8        29.99S
SAGINAW HB     LGT RAIN  68  64  88 N6        30.01S
$$
MIZ043>046-050>051-056>058-064>065-071>073-077>080-310100-
SOUTHWEST LOWER MICHIGAN

CITY           SKY/WX    TMP DP  RH WIND       PRES   REMARKS
BATTLE CREEK   MOCLDY    69  67  93 NE9       29.99R
6HR MIN TEMP:  67; 6HR MAX TEMP:  73;

BENTON HARBOR  MOSUNNY   74  65  73 VRB7      29.97R
6HR MIN TEMP:  74; 6HR MAX TEMP:  79;

BIG RAPIDS     CLOUDY    71  65  81 E5        30.02S
6HR MIN TEMP:  69; 6HR MAX TEMP:  74;

COLDWATER      MOCLDY    73  69  87 N9        29.97S
6HR MIN TEMP:  73; 6HR MAX TEMP:  77;

FREMONT        CLOUDY    71  67  86 E7        30.00F
HOLLAND        CLOUDY    72  64  76 E8        30.00S
6HR MIN TEMP:  71; 6HR MAX TEMP:  75;

GRAND RAPIDS   CLOUDY    70  64  81 NE8       30.00F
6HR MIN TEMP:  69; 6HR MAX TEMP:  71; 6HR PCP:  0.02;

IONIA          CLOUDY    67  64  88 NE9       30.00S
6HR MIN TEMP:  66; 6HR MAX TEMP:  69; 6HR PCP:  0.09;

KALAMAZOO      CLOUDY    72  65  78 NE7       29.98S
6HR MIN TEMP:  71; 6HR MAX TEMP:  75; 6HR PCP:  0.01;

LUDINGTON      CLOUDY    73  63  70 CALM      30.01R
6HR MIN TEMP:  72; 6HR MAX TEMP:  79;

MARSHALL       CLOUDY    72  68  88 N5        29.97F
6HR MIN TEMP:  69; 6HR MAX TEMP:  74; 6HR PCP:  0.03;

MOUNT PLEASANT LGT RAIN  69  64  84 NE6       30.02F
6HR MIN TEMP:  69; 6HR MAX TEMP:  74; 6HR PCP:  0.01;

MUSKEGON       CLOUDY    73  65  75 E6        30.00S
6HR MIN TEMP:  73; 6HR MAX TEMP:  78; 6HR PCP: TRACE;

SOUTH HAVEN    SUNNY     71  65  82 NE9       29.98S
$$
MIZ016>042-310100-
NORTHERN LOWER MICHIGAN

CITY           SKY/WX    TMP DP  RH WIND       PRES   REMARKS
ALPENA         PTCLDY    72  52  49 SE5       30.06S
6HR MIN TEMP:  72; 6HR MAX TEMP:  78;

BEAVER ISLAND  SUNNY     73  55  52 E8        30.06S
6HR MIN TEMP:  73; 6HR MAX TEMP:  79;

BELLAIRE       SUNNY     78  48  33 NE9       30.01S
6HR MIN TEMP:  78; 6HR MAX TEMP:  83;

CADILLAC       CLOUDY    69  60  72 SE5       30.04S
CHARLEVOIX     SUNNY     76  47  36 NE10G21   30.06S
6HR MIN TEMP:  76; 6HR MAX TEMP:  80;

FRANKFORT      MOSUNNY   75  56  52 N5        30.01S
GAYLORD        MOSUNNY   75  44  33 NE7       30.06S
6HR MIN TEMP:  75; 6HR MAX TEMP:  79;

GRAYLING       MOSUNNY   75  54  48 E8        30.04S
HARBOR SPRINGS SUNNY     74  49  41 E10       30.06R
HOUGHTON LAKE  CLOUDY    70  58  65 SE9       30.05S
6HR MIN TEMP:  70; 6HR MAX TEMP:  78;

MANISTEE       CLOUDY    74  63  68 SE5       30.01S
OSCODA         CLOUDY    70  56  61 NE8       30.04S
6HR MIN TEMP:  70; 6HR MAX TEMP:  75;

PELLSTON       SUNNY     74  48  39 E10       30.07S
6HR MIN TEMP:  74; 6HR MAX TEMP:  79;

ROGERS CITY    CLOUDY    69  52  55 NE6       30.07S
TRAVERSE CITY  PTSUNNY   80  56  43 VRB3      29.98S
6HR MIN TEMP:  80; 6HR MAX TEMP:  84;

$$
MIZ007>008-015-310100-
EASTERN UPPER MICHIGAN

CITY           SKY/WX    TMP DP  RH WIND       PRES   REMARKS
KINROSS        SUNNY     74  56  53 S8        30.08R
6HR MIN TEMP:  74; 6HR MAX TEMP:  79;

MACKINAC ISLAN SUNNY     71  55  56 E3        30.07S
6HR MIN TEMP:  71; 6HR MAX TEMP:  74;

NEWBERRY       MOSUNNY   73  52  46 S6        30.08R
S. S. MARIE    SUNNY     76  53  44 S6        30.06S
6HR MIN TEMP:  76; 6HR MAX TEMP:  80;

MUNISING         N/A     73  61  65 N6        30.05S
6HR MIN TEMP:  70; 6HR MAX TEMP:  76;

$$
MIZ004>006-011>014-085-310100-
CENTRAL UPPER MICHIGAN

CITY           SKY/WX    TMP DP  RH WIND       PRES   REMARKS
MANISTIQUE     SUNNY     73  57  58 E7        30.06S
6HR MIN TEMP:  73; 6HR MAX TEMP:  77;

ESCANABA       SUNNY     73  52  46 E5        30.04S
6HR MIN TEMP:  73; 6HR MAX TEMP:  75;

MENOMINEE      SUNNY    N/A N/A N/A NE9       30.04
SAWYER-GWINN   SUNNY     73  54  49 E8        30.07S
$$
MIZ001>003-009>011-084-310100-
WESTERN UPPER MICHIGAN

CITY           SKY/WX    TMP DP  RH WIND       PRES   REMARKS
IRON MOUNTAIN  SUNNY     74  48  39 SE7       30.05F
6HR MIN TEMP:  74; 6HR MAX TEMP:  80;

HOUGHTON       SUNNY     71  56  58 E7        30.05F
6HR MIN TEMP:  71; 6HR MAX TEMP:  78;

COPPER HARBOR    N/A     73  53  49 VRB3      30.04F
6HR MIN TEMP:  73; 6HR MAX TEMP:  77;

IRONWOOD       SUNNY     75  61  60 N3        30.00S
6HR MIN TEMP:  73; 6HR MAX TEMP:  79;

$$

ABBREVIATIONS USED IN REMARKS
   TC - TEMPERATURE IN CELSIUS
  WCI - WIND CHILL INDEX
   HX - HEAT INDEX
  VSB - VISIBILITY




USA.gov is the U.S. government's official web portal to all federal, state and local government web resources and services.